Regional Weather Roundup
Issued by NWS Goodland, KS

Home | Current Version | Previous Version | Graphics & Text | Print | Product List | Glossary On
Versions: 1 2 3 4 5 6 7 8 9 10 11 12 13 14 15 16 17 18 19 20 21 22 23 24 25 26 27 28 29 30 31 32 33 34 35 36 37 38 39 40 41 42 43 44 45 46 47 48 49 50
000
ASUS43 KGLD 241508
RWRGLD

GOODLAND FORECAST AREA HOURLY WEATHER ROUNDUP
NATIONAL WEATHER SERVICE GOODLAND KS
900 AM MDT THU APR 24 2014

...OFFICIAL OBSERVATIONS...

CITY           SKY/WX    TMP DP  RH WIND       PRES   REMARKS
GOODLAND KS    SUNNY     54  25  32 NW24G32   29.96S
HILL CITY KS   CLOUDY    54  39  57 NW20G25   29.88R
IMPERIAL NEB   SUNNY     56  24  29 NW25      29.93R
MCCOOK NEB     PTSUNNY   57  36  45 NW21G29   29.89R
AKRON CO       SUNNY     49  22  34 NW24G31   29.99S
BURLINGTON CO  SUNNY     53  18  25 NW23G29   29.99R
LIMON CO       SUNNY     44  19  36 NW15      30.04R
$$

...UNOFFICIAL OBSERVATIONS...

CITY           SKY/WX    TMP DP  RH WIND       PRES   REMARKS
COLBY KS       SUNNY     57  37  47 NW22G30   29.93S
LENORA KS        N/A     53  32  45 W20         N/A
LEOTI KS         N/A     55  32  41 NW17        N/A
NORTON KS      SUNNY     52  37  58 NW20G28   29.86R
OBERLIN KS     FAIR      57  34  41 NW23G29   29.90R
SHARON SPRINGS   N/A     54  29  38 N18G29      N/A
TRIBUNE KS     SUNNY     55  27  33 NW24      29.99R
WAKEENEY KS      N/A     55  35  47 MISG        N/A
TRENTON NEB      N/A     55  32  41 NW20        N/A
KIT CARSON CO    N/A     51  21  30 MISG        N/A
WRAY CO        FAIR      55  19  24 NW23G30   29.96
$$



USA.gov is the U.S. government's official web portal to all federal, state and local government web resources and services.